Location: Andrest
(43.3200°N, 0.0641°E)
Time: 03:34:42
(UTC+00:00)

COSMO-SKYMED 1 - Pass Details

Date: 14 April 2021
Orbit: 621 x 623 km, 97.9° (Epoch: 18 May)

Event Time Altitude Azimuth Distance (km) Brightness Sun altitude
Rises 04:11:11 0° 132° (SE) 2,895 6.3 -12.4°
Reaches altitude 10° 04:13:43 10° 117° (ESE) 1,993 5.7 -12.0°
Maximum altitude 04:17:05 23° 66° (ENE) 1,350 5.4 -11.5°
Drops below altitude 10° 04:20:29 10° 15° (NNE) 2,004 5.8 -10.9°
Sets 04:23:02 0° 1° (N) 2,915 6.4 -10.5°
